Location: Br�ttisellen
(47.4227°N, 8.6287°E)
Time: 18:55:24
(UTC+00:00)

ATLAS 2AS CENTAUR R/B - Pass Details

Date: 09 April 2020
Orbit: 931 x 1280 km, 63.7° (Epoch: 31 May)

Event Time Altitude Azimuth Distance (km) Brightness Sun altitude
Rises 19:56:54 0° 316° (NW) 4,154 7.4 -17.8°
Reaches altitude 10° 20:00:02 10° 308° (NW) 3,140 6.4 -18.2°
Maximum altitude 20:06:31 33° 248° (WSW) 1,813 4.2 -19.1°
Drops below altitude 10° 20:12:32 10° 187° (S) 2,902 4.7 -19.9°
Enters shadow 20:12:56 - 186° (S) 3,023 4.8 -20.0°
